Elmo, TX

7:43 PM CDT on September 30, 2016 (GMT -0500)
Terrell Municipal

Weather History for KTRL - May, 2013

Change the Weather History Date:

Sunday, May 19, 2013

  Actual Average (KDFW) Record (KDFW)
Temperature  
Mean Temperature 80 °F 75 °F  
Max Temperature 91 °F 84 °F 99 °F (2008)
Min Temperature 71 °F 65 °F 50 °F (2002)
Degree Days  
Heating Degree Days 0 0  
Month to date heating degree days 6  
Since 1 July heating degree days 2282  
Cooling Degree Days 16 10  
Month to date cooling degree days 145  
Year to date cooling degree days 283  
Growing Degree Days 30 (Base 50)    
Moisture  
Dew Point 68 °F    
Average Humidity 69    
Maximum Humidity 91    
Minimum Humidity 48    
Precipitation  
Precipitation 0.00 in 0.16 in 2.25 in (1955)
Month to date precipitation 3.04  
Year to date precipitation 14.39  
Sea Level Pressure  
Sea Level Pressure 29.78 in    
Wind  
Wind Speed 15 mph (South)    
Max Wind Speed 23 mph    
Max Gust Speed 30 mph    
Visibility 9 miles    
Events      
T = Trace of Precipitation, MM = Missing Value Source: NWS Daily Summary

Daily Weather History Graph

Daily Weather History Graph

Search for Another Location

Airport or City:

Trip Planner

Search our weather history database for the weather conditions in past years. The results will help you decide how hot, cold, wet, or windy it might be!

Date:

Astronomy

May. 19, 2013 Rise Set
Actual Time 6:23 AM CDT 8:19 PM CDT
Civil Twilight 5:56 AM CDT 8:47 PM CDT
Nautical Twilight 5:23 AM CDT 9:20 PM CDT
Astronomical Twilight 4:47 AM CDT 9:56 PM CDT
Moon 2:43 PM CDT (5/19) 2:27 AM CDT (5/19)
Length of Visible Light 14h 51m
Length of Day
13h 56m
Waxing Gibbous, 65% of the Moon is Illuminated
May 19
Waxing Gibbous
May 24
Full
May 31
Last Quarter
Jun 8
New
Jun 16
First Quarter

Hourly Weather History & Observations

Time (CDT) Temp. Heat Index Dew Point Humidity Pressure Visibility Wind Dir Wind Speed Gust Speed Precip Events Conditions
12:53 AM 78.1 °F - 70.0 °F 76% 29.82 in 10.0 mi South 16.1 mph - N/A   Clear
1:53 AM 75.9 °F - 70.0 °F 82% 29.81 in 10.0 mi SSE 10.4 mph - N/A   Clear
2:53 AM 73.9 °F - 70.0 °F 87% 29.81 in 10.0 mi SSE 10.4 mph - N/A   Clear
3:53 AM 73.0 °F - 69.1 °F 87% 29.81 in 9.0 mi South 9.2 mph - N/A   Clear
4:53 AM 72.0 °F - 69.1 °F 91% 29.80 in 9.0 mi South 10.4 mph - N/A   Clear
5:53 AM 71.1 °F - 68.0 °F 90% 29.79 in 8.0 mi South 15.0 mph 23.0 mph N/A   Partly Cloudy
6:36 AM 71.6 °F - 68.0 °F 88% 29.83 in 6.0 mi South 13.8 mph 20.7 mph N/A   Mostly Cloudy
7:53 AM 73.0 °F - 68.0 °F 84% 29.83 in 7.0 mi South 13.8 mph - N/A   Overcast
8:53 AM 73.9 °F - 68.0 °F 82% 29.84 in 8.0 mi South 13.8 mph - N/A   Overcast
9:53 AM 75.9 °F - 66.9 °F 74% 29.85 in 10.0 mi SSW 17.3 mph 29.9 mph N/A   Mostly Cloudy
10:31 AM 78.8 °F - 66.2 °F 65% 29.86 in 10.0 mi South 16.1 mph 24.2 mph N/A   Scattered Clouds
10:53 AM 81.0 °F 83.3 °F 66.9 °F 62% 29.84 in 10.0 mi South 16.1 mph 20.7 mph N/A   Clear
11:53 AM 84.0 °F 87.0 °F 68.0 °F 58% 29.81 in 10.0 mi South 19.6 mph 28.8 mph N/A   Partly Cloudy
12:53 PM 84.9 °F 88.2 °F 68.0 °F 57% 29.78 in 10.0 mi South 19.6 mph 28.8 mph N/A   Clear
3:53 PM 90.0 °F 93.6 °F 68.0 °F 48% 29.73 in 10.0 mi South 18.4 mph 28.8 mph N/A   Clear
4:53 PM 90.0 °F 93.6 °F 68.0 °F 48% 29.71 in 10.0 mi SSE 23.0 mph 29.9 mph N/A   Clear
5:53 PM 89.1 °F 92.1 °F 66.9 °F 48% 29.70 in 10.0 mi SSE 19.6 mph 28.8 mph N/A   Clear
6:53 PM 88.0 °F 90.3 °F 66.0 °F 48% 29.70 in 10.0 mi South 15.0 mph 23.0 mph N/A   Clear
7:53 PM 84.9 °F 87.1 °F 66.0 °F 53% 29.70 in 10.0 mi SSE 15.0 mph 24.2 mph N/A   Clear
8:53 PM 82.9 °F 85.0 °F 66.0 °F 56% 29.73 in 10.0 mi SSE 13.8 mph - N/A   Clear
9:53 PM 82.0 °F 84.5 °F 66.9 °F 60% 29.75 in 10.0 mi SSE 12.7 mph - N/A   Clear
11:53 PM 79.0 °F - 69.1 °F 72% 29.77 in 10.0 mi SSE 18.4 mph 26.5 mph N/A   Clear